Location: Bogis-Bossey
(46.3500°N, 6.1667°E)
Time: 18:45:09
(UTC+00:00)

Meteor 2-8 Rocket - Pass Details

Date: 17 August 2022
Orbit: 936 x 959 km, 82.5° (Epoch: 01 October)

Event Time Altitude Azimuth Distance (km) Brightness Sun altitude
Rises 22:22:31 0° 351° (N) 3,648 8.7 -28.0°
Reaches altitude 10° 22:25:03 10° 353° (N) 2,695 7.7 -28.2°
Maximum altitude 22:31:14 77° 80° (E) 981 4.3 -28.5°
Enters shadow 22:31:23 76° 97° (E) 982 4.3 -28.5°
